Weather History for Show Low, AZ

Change the Weather History Date:

Friday, January 24, 2014

  Actual Average Record
Temperature  
Mean Temperature 29 °F -  
Max Temperature 41 °F 44 °F 62 °F (1970)
Min Temperature 17 °F 28 °F 2 °F (1966)
Degree Days  
Heating Degree Days 36    
Moisture  
Dew Point 11 °F    
Average Humidity 48    
Maximum Humidity 73    
Minimum Humidity 31    
Precipitation  
Precipitation 0.00 in - - ()
Sea Level Pressure  
Sea Level Pressure 30.44 in    
Wind  
Wind Speed 3 mph (North)    
Max Wind Speed 12 mph    
Max Gust Speed -    
Visibility 10 miles    
Events      
Averages and records for this station are not official NWS values.
T = Trace of Precipitation, MM = Missing Value Source: NWS Daily Summary

Daily Weather History Graph

Daily Weather History Graph

Search for Another Location

Airport:

Trip Planner

Search our weather history database for the weather conditions in past years. The results will help you decide how hot, cold, wet, or windy it might be!

Date:

Astronomy

Jan. 24, 2014 Rise Set
Actual Time 7:22 AM MST 5:42 PM MST
Civil Twilight 6:55 AM MST 6:09 PM MST
Nautical Twilight 6:25 AM MST 6:39 PM MST
Astronomical Twilight 5:55 AM MST 7:09 PM MST
Moon 12:56 AM MST (1/24) 12:00 PM MST (1/24)
Length of Visible Light 11h 13m
Length of Day
10h 19m
Last Quarter, 44% of the Moon is Illuminated
Jan 24
Last Quarter
Jan 30
New
Feb 6
First Quarter
Feb 14
Full
Feb 22
Last Quarter

Hourly Weather History & Observations

Time (MST) Temp. Windchill Dew Point Humidity Pressure Visibility Wind Dir Wind Speed Gust Speed Precip Events Conditions
12:15 AM 26.6 °F - 8.6 °F 47% 30.39 in 10.0 mi Calm Calm - N/A   Clear
12:35 AM 26.6 °F 22.6 °F 10.4 °F 51% 30.39 in 10.0 mi WSW 3.5 mph - N/A   Clear
12:55 AM 26.6 °F 21.2 °F 10.4 °F 51% 30.40 in 10.0 mi SW 4.6 mph - N/A   Clear
1:15 AM 26.6 °F 22.6 °F 10.4 °F 51% 30.41 in 10.0 mi West 3.5 mph - N/A   Clear
1:35 AM 26.6 °F - 10.4 °F 51% 30.42 in 10.0 mi Calm Calm - N/A   Clear
1:55 AM 24.8 °F - 10.4 °F 54% 30.42 in 10.0 mi Calm Calm - N/A   Clear
2:15 AM 24.8 °F 20.5 °F 10.4 °F 54% 30.43 in 10.0 mi WSW 3.5 mph - N/A   Clear
2:35 AM 26.6 °F - 10.4 °F 51% 30.44 in 10.0 mi Calm Calm - N/A   Clear
2:55 AM 26.6 °F - 12.2 °F 55% 30.44 in 10.0 mi Calm Calm - N/A   Clear
3:15 AM 24.8 °F - 10.4 °F 54% 30.44 in 10.0 mi Calm Calm - N/A   Clear
3:35 AM 24.8 °F - 12.2 °F 59% 30.44 in 10.0 mi Calm Calm - N/A   Clear
3:55 AM 21.2 °F - 10.4 °F 63% 30.44 in 10.0 mi Calm Calm - N/A   Clear
4:15 AM 21.2 °F - 10.4 °F 63% 30.44 in 10.0 mi Calm Calm - N/A   Clear
4:35 AM 23.0 °F - 10.4 °F 59% 30.44 in 10.0 mi Calm Calm - N/A   Clear
4:55 AM 23.0 °F 18.4 °F 10.4 °F 59% 30.44 in 10.0 mi West 3.5 mph - N/A   Clear
5:15 AM 23.0 °F 18.4 °F 10.4 °F 59% 30.44 in 10.0 mi WSW 3.5 mph - N/A   Clear
5:35 AM 21.2 °F - 10.4 °F 63% 30.45 in 10.0 mi Calm Calm - N/A   Clear
5:55 AM 21.2 °F - 10.4 °F 63% 30.45 in 10.0 mi Calm Calm - N/A   Clear
6:15 AM 19.4 °F - 10.4 °F 68% 30.45 in 10.0 mi Calm Calm - N/A   Clear
6:35 AM 21.2 °F - 10.4 °F 63% 30.46 in 10.0 mi Calm Calm - N/A   Clear
6:55 AM 19.4 °F - 10.4 °F 68% 30.46 in 10.0 mi Calm Calm - N/A   Clear
7:15 AM 19.4 °F - 10.4 °F 68% 30.47 in 10.0 mi Calm Calm - N/A   Clear
7:35 AM 19.4 °F 14.3 °F 10.4 °F 68% 30.48 in 10.0 mi WSW 3.5 mph - N/A   Clear
7:55 AM 17.6 °F - 10.4 °F 73% 30.48 in 10.0 mi Calm Calm - N/A   Clear
8:15 AM 19.4 °F - 10.4 °F 68% 30.48 in 10.0 mi Calm Calm - N/A   Clear
8:35 AM 19.4 °F - 10.4 °F 68% 30.49 in 10.0 mi Calm Calm - N/A   Clear
8:55 AM 23.0 °F 18.4 °F 12.2 °F 63% 30.49 in 10.0 mi NW 3.5 mph - N/A   Clear
9:15 AM 23.0 °F - 10.4 °F 59% 30.49 in 10.0 mi Calm Calm - N/A   Clear
9:35 AM 26.6 °F 22.6 °F 12.2 °F 55% 30.50 in 10.0 mi North 3.5 mph - N/A   Clear
9:55 AM 28.4 °F 23.3 °F 12.2 °F 51% 30.50 in 10.0 mi NNW 4.6 mph - N/A   Clear
10:15 AM 30.2 °F 25.4 °F 14.0 °F 51% 30.51 in 10.0 mi NNW 4.6 mph - N/A   Clear
10:35 AM 32.0 °F 25.6 °F 14.0 °F 48% 30.50 in 10.0 mi North 6.9 mph - N/A   Clear
10:55 AM 32.0 °F 26.4 °F 14.0 °F 48% 30.50 in 10.0 mi North 5.8 mph - N/A   Clear
11:15 AM 33.8 °F 27.0 °F 14.0 °F 44% 30.50 in 10.0 mi North 8.1 mph - N/A   Clear
11:35 AM 33.8 °F 27.7 °F 14.0 °F 44% 30.50 in 10.0 mi North 6.9 mph - N/A   Clear
11:55 AM 35.6 °F 29.2 °F 14.0 °F 41% 30.49 in 10.0 mi NNE 8.1 mph - N/A   Clear
12:15 PM 37.4 °F 30.8 °F 14.0 °F 38% 30.48 in 10.0 mi North 9.2 mph - N/A   Clear
12:35 PM 37.4 °F 30.8 °F 14.0 °F 38% 30.47 in 10.0 mi North 9.2 mph - N/A   Clear
12:55 PM 37.4 °F 31.4 °F 14.0 °F 38% 30.46 in 10.0 mi North 8.1 mph - N/A   Clear
1:15 PM 39.2 °F 33.0 °F 14.0 °F 36% 30.45 in 10.0 mi North 9.2 mph - N/A   Clear
1:35 PM 39.2 °F 33.6 °F 14.0 °F 36% 30.44 in 10.0 mi North 8.1 mph - N/A   Clear
1:55 PM 41.0 °F 34.7 °F 14.0 °F 33% 30.43 in 10.0 mi North 10.4 mph - N/A   Clear
2:15 PM 41.0 °F 34.3 °F 14.0 °F 33% 30.42 in 10.0 mi North 11.5 mph - N/A   Clear
2:35 PM 41.0 °F 35.2 °F 14.0 °F 33% 30.42 in 10.0 mi North 9.2 mph - N/A   Clear
2:55 PM 41.0 °F 34.3 °F 12.2 °F 31% 30.42 in 10.0 mi North 11.5 mph - N/A   Clear
3:15 PM 41.0 °F 34.7 °F 12.2 °F 31% 30.41 in 10.0 mi North 10.4 mph - N/A   Clear
3:35 PM 41.0 °F 34.7 °F 12.2 °F 31% 30.41 in 10.0 mi North 10.4 mph - N/A   Clear
3:55 PM 41.0 °F 34.7 °F 12.2 °F 31% 30.41 in 10.0 mi North 10.4 mph - N/A   Clear
4:15 PM 41.0 °F 35.2 °F 12.2 °F 31% 30.41 in 10.0 mi North 9.2 mph - N/A   Clear
4:35 PM 41.0 °F 35.2 °F 12.2 °F 31% 30.41 in 10.0 mi North 9.2 mph - N/A   Clear
4:55 PM 39.2 °F 33.6 °F 10.4 °F 31% 30.40 in 10.0 mi North 8.1 mph - N/A   Clear
5:15 PM 39.2 °F 34.2 °F 10.4 °F 31% 30.41 in 10.0 mi North 6.9 mph - N/A   Clear
5:35 PM 37.4 °F 32.1 °F 10.4 °F 33% 30.41 in 10.0 mi North 6.9 mph - N/A   Clear
5:55 PM 35.6 °F 31.7 °F 10.4 °F 35% 30.41 in 10.0 mi North 4.6 mph - N/A   Clear
6:15 PM 33.8 °F 30.8 °F 8.6 °F 35% 30.42 in 10.0 mi North 3.5 mph - N/A   Clear
6:35 PM 33.8 °F - 8.6 °F 35% 30.42 in 10.0 mi Calm Calm - N/A   Clear
6:55 PM 32.0 °F - 10.4 °F 41% 30.43 in 10.0 mi Calm Calm - N/A   Clear
7:15 PM 32.0 °F - 10.4 °F 41% 30.42 in 10.0 mi Calm Calm - N/A   Clear
7:35 PM 32.0 °F 28.7 °F 10.4 °F 41% 30.43 in 10.0 mi East 3.5 mph - N/A   Clear
7:55 PM 32.0 °F 28.7 °F 10.4 °F 41% 30.43 in 10.0 mi East 3.5 mph - N/A   Clear
8:15 PM 32.0 °F - 10.4 °F 41% 30.43 in 10.0 mi Calm Calm - N/A   Clear
8:35 PM 30.2 °F 26.7 °F 10.4 °F 44% 30.44 in 10.0 mi NE 3.5 mph - N/A   Clear
8:55 PM 28.4 °F 23.3 °F 10.4 °F 47% 30.44 in 10.0 mi ENE 4.6 mph - N/A   Clear
9:15 PM 28.4 °F 23.3 °F 10.4 °F 47% 30.44 in 10.0 mi ENE 4.6 mph - N/A   Clear
9:35 PM 30.2 °F 26.7 °F 10.4 °F 44% 30.44 in 10.0 mi East 3.5 mph - N/A   Clear
9:55 PM 28.4 °F 23.3 °F 10.4 °F 47% 30.45 in 10.0 mi East 4.6 mph - N/A   Clear
10:15 PM 28.4 °F 24.6 °F 10.4 °F 47% 30.45 in 10.0 mi East 3.5 mph - N/A   Clear
10:35 PM 28.4 °F 23.3 °F 10.4 °F 47% 30.44 in 10.0 mi East 4.6 mph - N/A   Clear
10:55 PM 28.4 °F 24.6 °F 10.4 °F 47% 30.45 in 10.0 mi East 3.5 mph - N/A   Partly Cloudy
11:15 PM 28.4 °F 23.3 °F 12.2 °F 51% 30.44 in 10.0 mi East 4.6 mph - N/A   Mostly Cloudy
11:35 PM 28.4 °F 23.3 °F 10.4 °F 47% 30.44 in 10.0 mi ENE 4.6 mph - N/A   Overcast
11:55 PM 30.2 °F - 12.2 °F 47% 30.43 in 10.0 mi Calm Calm - N/A   Mostly Cloudy